Precipitable_Water
0.27 0.28 0.28 0.29 0.28 0.28 0.28 0.29 0.31 0.34 0.36 0.36 0.37 0.39 0.40 0.40 0.40 0.38 0.36 0.36 0.37 0.37 0.37 0.36 0.35 0.35 0.34 0.33 0.32 0.33 0.33 0.33 0.33 0.33 0.34 0.36 0.35 0.33 0.32 0.29 0.27 0.25 0.24 0.25 0.25 0.23 0.23 0.24 0.25 0.25 0.25 0.24 0.23 0.22 0.22 0.22 0.22 0.22 0.22 0.22 0.22 0.22 0.21
0.27 0.28 0.28 0.28 0.28 0.27 0.27 0.27 0.28 0.30 0.32 0.33 0.34 0.34 0.37 0.38 0.39 0.38 0.38 0.36 0.35 0.36 0.37 0.36 0.35 0.35 0.34 0.34 0.32 0.32 0.32 0.32 0.33 0.34 0.35 0.36 0.35 0.33 0.31 0.30 0.27 0.26 0.25 0.24 0.26 0.24 0.23 0.23 0.23 0.23 0.25 0.24 0.23 0.23 0.23 0.23 0.22 0.22 0.23 0.23 0.23 0.23 0.22
0.28 0.28 0.28 0.28 0.27 0.27 0.27 0.26 0.27 0.28 0.29 0.30 0.31 0.32 0.33 0.35 0.36 0.38 0.38 0.37 0.36 0.36 0.37 0.36 0.34 0.34 0.34 0.34 0.32 0.31 0.32 0.32 0.33 0.35 0.36 0.36 0.35 0.33 0.31 0.30 0.29 0.27 0.26 0.25 0.25 0.25 0.23 0.23 0.22 0.22 0.22 0.24 0.24 0.24 0.24 0.23 0.22 0.22 0.23 0.24 0.24 0.23 0.22
0.28 0.28 0.28 0.27 0.27 0.27 0.27 0.27 0.27 0.27 0.28 0.28 0.29 0.30 0.31 0.32 0.33 0.35 0.37 0.38 0.37 0.37 0.36 0.35 0.34 0.33 0.33 0.33 0.32 0.32 0.31 0.32 0.33 0.35 0.36 0.35 0.35 0.34 0.32 0.31 0.30 0.28 0.26 0.26 0.24 0.25 0.24 0.23 0.22 0.22 0.23 0.24 0.25 0.25 0.25 0.24 0.24 0.24 0.24 0.25 0.25 0.24 0.23
0.29 0.28 0.28 0.27 0.27 0.27 0.27 0.27 0.27 0.27 0.27 0.28 0.28 0.28 0.29 0.30 0.31 0.32 0.35 0.37 0.38 0.37 0.36 0.35 0.34 0.33 0.33 0.33 0.32 0.32 0.32 0.32 0.32 0.34 0.35 0.35 0.35 0.34 0.33 0.31 0.30 0.29 0.28 0.26 0.25 0.25 0.26 0.25 0.25 0.26 0.26 0.26 0.26 0.26 0.26 0.26 0.26 0.26 0.26 0.25 0.24 0.23 0.22
0.28 0.29 0.28 0.28 0.29 0.29 0.29 0.28 0.28 0.27 0.27 0.27 0.27 0.27 0.28 0.28 0.29 0.30 0.32 0.35 0.37 0.37 0.36 0.35 0.34 0.33 0.33 0.32 0.31 0.31 0.32 0.33 0.33 0.33 0.34 0.34 0.34 0.34 0.32 0.30 0.29 0.28 0.27 0.26 0.25 0.24 0.24 0.25 0.25 0.25 0.26 0.26 0.26 0.25 0.24 0.24 0.25 0.25 0.25 0.24 0.23 0.22 0.21
0.27 0.28 0.28 0.29 0.30 0.30 0.30 0.29 0.29 0.28 0.27 0.27 0.27 0.27 0.27 0.27 0.27 0.28 0.30 0.32 0.35 0.37 0.36 0.35 0.34 0.33 0.33 0.32 0.32 0.32 0.32 0.33 0.33 0.33 0.33 0.34 0.34 0.33 0.32 0.30 0.29 0.28 0.27 0.25 0.24 0.24 0.24 0.24 0.25 0.25 0.24 0.25 0.26 0.25 0.24 0.23 0.23 0.23 0.23 0.23 0.21 0.20 0.20
0.27 0.27 0.28 0.29 0.29 0.30 0.30 0.30 0.30 0.29 0.28 0.27 0.27 0.27 0.27 0.27 0.26 0.26 0.28 0.30 0.33 0.35 0.36 0.35 0.34 0.33 0.33 0.33 0.33 0.32 0.32 0.33 0.33 0.33 0.33 0.34 0.34 0.33 0.31 0.30 0.29 0.27 0.26 0.25 0.24 0.23 0.23 0.24 0.24 0.24 0.25 0.25 0.24 0.23 0.23 0.24 0.23 0.21 0.21 0.20 0.20 0.20 0.19
0.28 0.28 0.28 0.29 0.30 0.30 0.30 0.30 0.29 0.29 0.28 0.28 0.27 0.27 0.26 0.26 0.26 0.26 0.26 0.27 0.30 0.33 0.35 0.35 0.34 0.34 0.33 0.34 0.33 0.33 0.33 0.33 0.34 0.33 0.32 0.33 0.33 0.32 0.31 0.30 0.27 0.26 0.26 0.25 0.23 0.23 0.24 0.23 0.23 0.23 0.23 0.23 0.22 0.22 0.21 0.22 0.22 0.21 0.20 0.20 0.19 0.19 0.18
0.29 0.29 0.28 0.28 0.29 0.29 0.29 0.29 0.29 0.29 0.29 0.29 0.28 0.28 0.27 0.26 0.25 0.25 0.25 0.25 0.28 0.30 0.33 0.34 0.35 0.34 0.34 0.33 0.33 0.32 0.32 0.32 0.33 0.34 0.34 0.33 0.33 0.32 0.31 0.29 0.27 0.26 0.26 0.24 0.23 0.23 0.23 0.22 0.22 0.22 0.22 0.22 0.22 0.22 0.22 0.22 0.21 0.19 0.19 0.18 0.17 0.17 0.16
0.28 0.28 0.30 0.29 0.28 0.27 0.27 0.28 0.29 0.29 0.30 0.30 0.30 0.29 0.28 0.26 0.26 0.26 0.25 0.25 0.26 0.28 0.31 0.33 0.34 0.34 0.34 0.33 0.33 0.32 0.32 0.32 0.32 0.33 0.34 0.34 0.33 0.32 0.29 0.27 0.26 0.26 0.25 0.24 0.23 0.23 0.22 0.22 0.21 0.22 0.22 0.22 0.21 0.21 0.21 0.21 0.20 0.19 0.18 0.16 0.15 0.14 0.15
0.28 0.28 0.28 0.27 0.27 0.27 0.27 0.28 0.29 0.30 0.31 0.31 0.31 0.31 0.30 0.28 0.27 0.27 0.26 0.25 0.25 0.27 0.30 0.32 0.33 0.33 0.34 0.33 0.33 0.32 0.31 0.31 0.32 0.32 0.33 0.33 0.32 0.30 0.29 0.28 0.27 0.25 0.25 0.24 0.23 0.22 0.22 0.21 0.21 0.21 0.23 0.22 0.22 0.21 0.20 0.20 0.19 0.18 0.16 0.15 0.14 0.14 0.14
0.28 0.28 0.27 0.27 0.26 0.26 0.27 0.28 0.29 0.30 0.31 0.32 0.33 0.33 0.33 0.30 0.29 0.27 0.26 0.26 0.26 0.27 0.30 0.32 0.32 0.32 0.33 0.33 0.33 0.32 0.31 0.31 0.31 0.31 0.32 0.32 0.32 0.30 0.29 0.29 0.28 0.27 0.26 0.25 0.24 0.22 0.21 0.22 0.22 0.23 0.23 0.23 0.21 0.20 0.19 0.18 0.17 0.16 0.15 0.15 0.15 0.15 0.15
0.27 0.27 0.26 0.26 0.27 0.27 0.27 0.28 0.30 0.31 0.32 0.33 0.33 0.33 0.33 0.31 0.29 0.28 0.27 0.26 0.27 0.28 0.30 0.31 0.31 0.31 0.31 0.32 0.33 0.32 0.31 0.30 0.30 0.30 0.31 0.32 0.31 0.30 0.30 0.29 0.28 0.28 0.27 0.26 0.24 0.22 0.21 0.23 0.25 0.23 0.22 0.22 0.21 0.19 0.17 0.16 0.15 0.15 0.15 0.15 0.15 0.16 0.15
0.26 0.26 0.26 0.26 0.27 0.27 0.27 0.28 0.30 0.31 0.32 0.33 0.33 0.33 0.32 0.31 0.29 0.28 0.27 0.27 0.28 0.29 0.30 0.31 0.31 0.31 0.31 0.32 0.32 0.32 0.31 0.29 0.29 0.29 0.30 0.30 0.29 0.28 0.28 0.28 0.28 0.28 0.27 0.25 0.24 0.24 0.25 0.25 0.24 0.23 0.22 0.20 0.19 0.18 0.17 0.17 0.16 0.16 0.16 0.16 0.16 0.15 0.14
0.27 0.26 0.26 0.27 0.28 0.27 0.27 0.28 0.30 0.32 0.32 0.33 0.33 0.32 0.32 0.30 0.29 0.27 0.26 0.28 0.29 0.29 0.30 0.30 0.31 0.31 0.31 0.31 0.32 0.32 0.31 0.30 0.29 0.28 0.28 0.27 0.27 0.27 0.28 0.28 0.28 0.28 0.28 0.27 0.27 0.26 0.25 0.25 0.24 0.23 0.22 0.21 0.20 0.19 0.18 0.17 0.17 0.16 0.15 0.14 0.13 0.12 0.10
0.26 0.27 0.27 0.27 0.28 0.28 0.28 0.29 0.31 0.32 0.33 0.33 0.33 0.32 0.31 0.30 0.29 0.28 0.28 0.28 0.29 0.29 0.30 0.30 0.30 0.31 0.30 0.31 0.31 0.31 0.31 0.30 0.29 0.27 0.26 0.26 0.26 0.27 0.27 0.27 0.28 0.29 0.29 0.28 0.27 0.27 0.26 0.26 0.24 0.23 0.21 0.20 0.19 0.18 0.17 0.16 0.14 0.13 0.13 0.12 0.10 0.09 0.08
0.27 0.28 0.29 0.29 0.29 0.29 0.29 0.29 0.31 0.32 0.33 0.33 0.32 0.32 0.31 0.30 0.29 0.28 0.28 0.28 0.29 0.29 0.29 0.30 0.30 0.30 0.30 0.30 0.30 0.31 0.30 0.29 0.28 0.27 0.26 0.25 0.25 0.26 0.26 0.26 0.27 0.27 0.27 0.27 0.26 0.26 0.25 0.22 0.21 0.19 0.18 0.18 0.17 0.17 0.16 0.14 0.12 0.12 0.11 0.10 0.09 0.08 0.08
0.29 0.29 0.30 0.31 0.31 0.31 0.30 0.30 0.30 0.32 0.32 0.32 0.32 0.32 0.31 0.30 0.29 0.28 0.28 0.28 0.28 0.29 0.29 0.29 0.30 0.30 0.30 0.30 0.30 0.30 0.29 0.29 0.28 0.27 0.26 0.26 0.26 0.25 0.25 0.25 0.26 0.25 0.24 0.23 0.22 0.21 0.20 0.18 0.18 0.17 0.16 0.15 0.14 0.14 0.13 0.12 0.12 0.11 0.10 0.08 0.08 0.08 0.07
0.30 0.30 0.30 0.31 0.31 0.31 0.30 0.30 0.30 0.32 0.32 0.32 0.32 0.32 0.31 0.30 0.28 0.27 0.27 0.28 0.27 0.27 0.27 0.28 0.28 0.29 0.30 0.30 0.29 0.29 0.29 0.29 0.29 0.27 0.27 0.27 0.25 0.24 0.24 0.25 0.24 0.24 0.23 0.21 0.19 0.18 0.17 0.16 0.16 0.15 0.14 0.13 0.12 0.12 0.11 0.11 0.11 0.10 0.09 0.08 0.08 0.08 0.07
0.30 0.30 0.31 0.31 0.31 0.30 0.30 0.30 0.30 0.32 0.32 0.32 0.32 0.32 0.31 0.30 0.29 0.29 0.28 0.27 0.27 0.26 0.26 0.27 0.28 0.29 0.30 0.30 0.29 0.29 0.29 0.29 0.29 0.28 0.27 0.27 0.25 0.25 0.24 0.24 0.23 0.22 0.21 0.19 0.18 0.17 0.16 0.15 0.14 0.13 0.12 0.11 0.11 0.11 0.11 0.11 0.10 0.09 0.09 0.09 0.08 0.07 0.07
0.30 0.30 0.29 0.29 0.30 0.29 0.29 0.31 0.31 0.31 0.31 0.32 0.32 0.32 0.32 0.30 0.30 0.30 0.28 0.27 0.26 0.26 0.26 0.26 0.27 0.28 0.29 0.29 0.29 0.29 0.29 0.30 0.29 0.28 0.27 0.26 0.25 0.25 0.24 0.23 0.22 0.21 0.20 0.19 0.17 0.16 0.14 0.13 0.12 0.11 0.11 0.11 0.11 0.11 0.10 0.09 0.09 0.09 0.09 0.09 0.08 0.08 0.07
0.29 0.28 0.28 0.28 0.29 0.29 0.30 0.31 0.31 0.32 0.31 0.32 0.32 0.32 0.32 0.31 0.30 0.30 0.29 0.27 0.26 0.26 0.27 0.28 0.28 0.28 0.29 0.29 0.29 0.29 0.29 0.29 0.29 0.28 0.26 0.25 0.25 0.25 0.24 0.22 0.21 0.20 0.18 0.17 0.15 0.14 0.12 0.12 0.11 0.11 0.11 0.11 0.10 0.09 0.09 0.09 0.09 0.09 0.09 0.08 0.08 0.08 0.08
0.28 0.28 0.27 0.27 0.28 0.29 0.29 0.30 0.31 0.31 0.31 0.31 0.32 0.32 0.32 0.31 0.31 0.30 0.29 0.28 0.27 0.27 0.28 0.28 0.28 0.28 0.28 0.28 0.28 0.28 0.28 0.28 0.29 0.27 0.26 0.25 0.25 0.25 0.23 0.21 0.19 0.18 0.16 0.15 0.13 0.12 0.11 0.11 0.11 0.11 0.10 0.10 0.09 0.09 0.09 0.09 0.09 0.09 0.09 0.08 0.08 0.08 0.08
0.28 0.27 0.27 0.27 0.27 0.28 0.29 0.29 0.30 0.31 0.31 0.31 0.32 0.32 0.32 0.31 0.31 0.30 0.30 0.28 0.28 0.28 0.28 0.27 0.27 0.27 0.27 0.27 0.27 0.27 0.27 0.27 0.28 0.27 0.26 0.26 0.25 0.23 0.22 0.20 0.18 0.16 0.15 0.13 0.12 0.11 0.11 0.11 0.10 0.10 0.10 0.10 0.10 0.10 0.09 0.09 0.09 0.09 0.09 0.08 0.08 0.08 0.08
0.27 0.27 0.27 0.26 0.27 0.28 0.28 0.29 0.29 0.30 0.31 0.31 0.31 0.32 0.32 0.32 0.31 0.31 0.30 0.29 0.28 0.28 0.27 0.27 0.27 0.27 0.27 0.27 0.27 0.27 0.27 0.26 0.26 0.26 0.26 0.25 0.24 0.22 0.20 0.18 0.16 0.15 0.14 0.12 0.11 0.11 0.10 0.10 0.10 0.10 0.10 0.10 0.10 0.09 0.09 0.09 0.09 0.09 0.08 0.09 0.08 0.08 0.07
0.27 0.26 0.26 0.26 0.27 0.27 0.27 0.28 0.28 0.29 0.30 0.31 0.31 0.30 0.31 0.31 0.31 0.31 0.30 0.29 0.28 0.28 0.27 0.27 0.27 0.27 0.27 0.27 0.27 0.27 0.26 0.25 0.25 0.24 0.24 0.23 0.22 0.20 0.19 0.17 0.15 0.13 0.12 0.11 0.11 0.10 0.10 0.10 0.10 0.10 0.10 0.10 0.09 0.09 0.09 0.09 0.09 0.09 0.09 0.09 0.08 0.07 0.06
0.26 0.25 0.26 0.26 0.26 0.27 0.27 0.27 0.28 0.28 0.28 0.29 0.29 0.30 0.30 0.31 0.30 0.30 0.29 0.28 0.28 0.28 0.28 0.27 0.27 0.27 0.26 0.26 0.25 0.24 0.23 0.23 0.23 0.23 0.23 0.22 0.20 0.19 0.17 0.15 0.14 0.12 0.11 0.11 0.11 0.11 0.11 0.10 0.10 0.10 0.10 0.10 0.09 0.09 0.09 0.10 0.09 0.09 0.09 0.09 0.08 0.07 0.06
0.26 0.27 0.27 0.27 0.27 0.26 0.26 0.27 0.27 0.27 0.29 0.30 0.30 0.29 0.29 0.30 0.30 0.30 0.29 0.29 0.28 0.28 0.27 0.26 0.24 0.24 0.24 0.23 0.23 0.22 0.22 0.22 0.22 0.22 0.22 0.21 0.18 0.16 0.15 0.13 0.12 0.11 0.11 0.11 0.11 0.11 0.10 0.10 0.10 0.10 0.10 0.10 0.09 0.10 0.10 0.10 0.10 0.10 0.09 0.08 0.08 0.07 0.07
0.28 0.28 0.29 0.28 0.29 0.29 0.27 0.26 0.28 0.30 0.30 0.30 0.31 0.30 0.30 0.31 0.31 0.30 0.29 0.29 0.29 0.27 0.25 0.24 0.23 0.23 0.23 0.23 0.22 0.21 0.21 0.21 0.22 0.21 0.20 0.18 0.16 0.14 0.12 0.12 0.12 0.12 0.11 0.11 0.11 0.10 0.10 0.10 0.10 0.10 0.10 0.10 0.10 0.10 0.10 0.10 0.10 0.09 0.09 0.08 0.07 0.07 0.07
0.30 0.29 0.29 0.29 0.28 0.29 0.29 0.29 0.30 0.30 0.30 0.30 0.31 0.30 0.30 0.31 0.31 0.30 0.29 0.29 0.27 0.26 0.24 0.23 0.23 0.23 0.23 0.22 0.22 0.21 0.21 0.21 0.21 0.20 0.18 0.16 0.14 0.12 0.12 0.12 0.11 0.11 0.11 0.11 0.10 0.10 0.10 0.10 0.10 0.10 0.10 0.10 0.10 0.10 0.10 0.10 0.10 0.09 0.09 0.08 0.08 0.07 0.07
0.28 0.28 0.28 0.28 0.28 0.27 0.27 0.28 0.29 0.29 0.29 0.30 0.30 0.30 0.30 0.30 0.30 0.30 0.29 0.28 0.27 0.25 0.24 0.23 0.23 0.22 0.22 0.22 0.22 0.22 0.21 0.21 0.20 0.18 0.16 0.14 0.12 0.12 0.12 0.11 0.11 0.11 0.11 0.11 0.10 0.10 0.10 0.10 0.10 0.10 0.10 0.10 0.10 0.10 0.10 0.09 0.09 0.09 0.08 0.08 0.08 0.08 0.08
0.28 0.27 0.27 0.27 0.28 0.28 0.27 0.27 0.28 0.28 0.28 0.29 0.29 0.29 0.30 0.30 0.30 0.29 0.29 0.28 0.26 0.24 0.23 0.23 0.23 0.22 0.22 0.22 0.21 0.21 0.21 0.21 0.20 0.17 0.15 0.13 0.12 0.11 0.11 0.11 0.11 0.11 0.11 0.11 0.10 0.10 0.10 0.10 0.10 0.10 0.10 0.10 0.10 0.09 0.09 0.09 0.09 0.09 0.09 0.08 0.08 0.08 0.08
0.27 0.27 0.27 0.27 0.27 0.28 0.27 0.27 0.27 0.28 0.28 0.28 0.28 0.28 0.29 0.29 0.29 0.29 0.28 0.27 0.25 0.24 0.23 0.22 0.22 0.22 0.22 0.22 0.22 0.21 0.21 0.20 0.18 0.16 0.14 0.12 0.12 0.12 0.11 0.11 0.11 0.11 0.11 0.11 0.11 0.11 0.10 0.10 0.10 0.10 0.10 0.10 0.09 0.09 0.09 0.09 0.09 0.09 0.08 0.08 0.08 0.08 0.08
0.26 0.27 0.27 0.27 0.27 0.27 0.27 0.27 0.27 0.27 0.27 0.27 0.27 0.27 0.28 0.28 0.27 0.25 0.25 0.25 0.24 0.24 0.23 0.22 0.22 0.22 0.22 0.21 0.21 0.21 0.21 0.19 0.16 0.15 0.13 0.12 0.11 0.11 0.11 0.11 0.11 0.11 0.11 0.11 0.10 0.10 0.10 0.10 0.10 0.10 0.10 0.09 0.09 0.09 0.08 0.08 0.09 0.09 0.09 0.08 0.08 0.08 0.08
0.26 0.27 0.28 0.28 0.28 0.28 0.27 0.27 0.27 0.27 0.27 0.27 0.27 0.27 0.28 0.25 0.25 0.24 0.24 0.23 0.23 0.23 0.22 0.22 0.22 0.22 0.21 0.21 0.21 0.21 0.20 0.17 0.15 0.13 0.12 0.12 0.11 0.11 0.11 0.11 0.11 0.11 0.11 0.11 0.11 0.11 0.11 0.10 0.10 0.10 0.09 0.09 0.09 0.08 0.08 0.09 0.09 0.09 0.09 0.09 0.08 0.08 0.08
Wind_Speed
46 47 48 49 50 50 50 51 52 52 52 52 53 54 54 55 55 55 54 53 52 50 50 50 49 47 46 45 44 44 45 44 44 44 43 43 43 43 43 42 42 41 40 39 39 39 39 40 40 40 40 40 40 40 40 41 41 42 43 43 43 43 44
46 47 47 48 49 50 50 51 52 52 53 53 53 53 54 55 55 55 54 54 53 52 51 50 50 49 47 46 45 45 45 45 44 44 43 42 42 42 42 42 41 41 40 40 39 39 39 39 40 40 40 40 40 40 40 41 41 42 43 43 43 44 44
42 44 46 48 49 50 51 51 51 52 53 53 53 53 53 54 55 55 55 54 54 54 53 51 51 50 49 47 46 45 45 45 44 43 43 42 41 41 41 41 41 40 40 40 39 39 38 38 39 39 40 40 40 40 40 41 41 42 43 43 43 44 44
36 38 41 44 46 49 50 51 51 51 52 53 53 53 53 54 54 55 55 55 55 55 54 53 52 51 50 48 47 46 45 45 44 44 42 41 41 40 40 40 40 40 39 38 38 37 37 37 38 39 39 39 40 40 41 41 42 42 43 43 44 44 45
32 34 35 37 40 42 45 47 49 50 51 52 52 52 53 53 54 55 55 55 56 55 55 54 53 51 50 49 48 47 46 45 45 44 43 41 40 40 39 39 39 39 38 38 37 37 37 37 37 38 38 39 39 40 41 41 42 42 43 43 44 44 45
32 33 34 35 36 37 39 41 43 45 47 48 49 50 51 52 53 54 55 55 55 55 55 54 53 52 51 50 49 48 46 45 45 44 43 42 40 39 39 38 38 38 38 38 37 37 37 37 37 37 38 38 38 39 40 41 41 42 42 43 43 43 44
33 33 34 34 35 35 36 38 39 41 43 44 46 48 49 50 51 53 54 55 55 55 55 55 54 53 52 51 50 48 46 45 45 45 44 42 41 40 39 38 38 38 37 37 37 37 36 36 36 36 36 37 37 38 39 39 40 40 41 41 42 42 43
33 34 34 34 35 35 36 36 37 39 40 42 43 45 47 48 50 51 53 55 55 55 54 54 54 52 51 50 49 48 47 46 45 45 44 43 42 41 40 38 37 37 37 36 36 36 35 35 35 35 35 35 35 36 37 37 38 38 39 40 41 42 43
33 34 34 35 35 35 35 36 37 38 39 40 41 43 44 46 47 49 51 53 55 55 53 53 52 52 50 49 48 48 47 46 46 45 44 43 43 41 40 38 37 37 36 36 36 35 34 34 34 33 34 34 34 35 35 35 36 37 38 39 40 41 42
33 34 34 34 35 35 35 36 36 37 39 40 41 42 43 44 45 47 48 50 53 54 53 52 51 51 50 48 48 47 46 46 45 45 44 43 43 42 39 38 37 37 36 36 35 35 34 33 33 33 34 34 34 34 34 35 35 37 38 38 39 40 41
33 33 34 34 34 34 35 35 36 37 38 40 41 41 42 43 44 45 47 48 51 53 52 51 50 50 49 48 47 46 45 45 45 44 43 43 43 42 40 39 37 36 36 35 35 34 34 33 33 34 34 34 34 34 34 35 36 37 37 38 38 39 40
33 33 33 33 33 33 34 34 35 36 37 38 39 40 40 41 43 44 45 46 48 50 50 49 49 49 48 47 46 45 44 44 44 43 43 43 43 42 41 40 38 37 35 35 34 34 34 34 34 34 33 33 34 34 35 36 37 37 38 38 39 39 40
33 33 32 31 31 32 32 32 33 34 35 36 37 38 39 39 40 41 42 44 45 47 48 48 47 47 47 46 45 44 43 43 43 42 42 41 41 41 40 39 38 37 36 35 34 33 34 34 33 33 33 33 33 34 36 37 38 38 38 39 39 40 40
32 31 30 30 30 30 30 30 31 32 33 34 35 36 37 37 38 38 39 40 42 44 45 46 46 46 46 45 44 43 42 41 41 40 39 39 38 38 38 38 38 37 36 35 34 34 34 33 33 33 33 33 34 36 37 38 38 38 38 38 39 40 41
29 28 28 28 27 28 28 29 30 30 31 31 32 33 33 32 33 34 35 37 39 40 42 43 44 44 44 44 43 43 41 40 39 38 37 36 36 35 35 35 36 36 35 35 34 33 33 33 33 33 34 35 35 36 36 36 36 37 37 38 39 40 41
27 26 26 25 26 27 27 27 27 27 28 28 28 27 27 26 28 30 31 33 35 37 38 40 41 42 42 42 42 41 41 39 38 37 36 35 34 34 34 34 34 34 34 34 33 33 33 33 34 34 34 34 34 35 35 34 35 35 36 37 38 39 40
24 24 24 24 25 26 26 25 24 24 24 24 23 22 21 22 24 26 28 29 31 33 34 36 39 40 40 40 40 40 40 39 38 37 35 34 33 33 33 33 33 33 33 33 33 33 33 33 33 33 34 34 34 34 33 33 33 33 34 35 37 38 38
22 22 23 24 24 24 23 22 21 21 20 19 19 18 18 19 21 23 25 26 27 29 31 33 36 38 37 37 38 38 38 38 37 36 35 33 32 31 32 32 32 32 32 32 32 32 32 32 32 32 33 33 33 33 32 32 32 32 33 34 35 36 36
20 21 21 22 22 21 20 19 18 18 17 16 16 16 16 17 19 21 22 23 24 25 27 30 33 35 35 35 36 37 37 36 35 34 34 32 31 31 31 31 32 32 31 31 31 31 31 32 32 32 32 32 31 31 30 31 31 32 32 33 33 34 35
19 19 19 18 17 16 16 16 15 15 14 14 15 15 15 16 18 19 20 21 22 23 24 26 29 32 33 33 34 34 35 34 33 32 32 31 30 30 31 30 30 30 30 29 29 30 30 31 31 31 30 29 28 28 28 29 30 31 31 31 32 33 34
17 17 16 14 13 12 12 12 12 12 12 12 14 15 15 16 17 18 18 19 20 21 22 24 25 28 31 32 32 32 33 32 31 31 31 31 30 30 29 28 28 28 28 28 28 29 29 30 29 28 26 26 26 27 27 28 28 29 30 31 32 33 33
14 13 11 9 9 9 9 10 9 9 10 11 13 14 15 15 16 17 17 17 18 20 21 22 23 25 27 29 29 30 31 30 29 29 29 30 29 28 27 26 26 26 27 27 27 27 28 27 26 25 24 25 25 25 26 27 27 28 29 30 32 33 33
10 8 7 6 6 7 7 7 7 7 8 10 12 13 15 15 15 16 17 17 18 19 19 21 22 23 24 26 27 27 28 28 27 27 27 27 27 26 25 25 25 25 25 26 26 26 25 24 23 23 23 23 24 24 25 25 26 27 29 30 31 32 33
6 6 6 6 6 6 6 6 6 6 8 10 11 12 14 15 16 16 16 16 18 18 18 19 20 21 23 24 25 25 25 26 25 25 25 25 25 24 24 24 24 25 25 25 24 23 22 21 21 21 22 22 23 23 24 25 26 27 28 29 30 31 32
5 5 5 5 5 5 5 6 6 6 7 9 10 11 13 15 16 16 16 16 17 17 18 18 19 20 21 23 23 23 23 23 23 24 23 23 23 23 23 24 24 24 23 22 21 20 20 19 20 20 20 21 21 22 23 24 25 26 27 28 29 30 31
5 5 5 4 5 5 5 5 6 6 7 9 10 11 12 14 15 16 16 16 16 16 17 17 18 19 20 21 21 21 21 21 22 23 23 23 23 22 23 23 22 21 20 19 18 18 18 18 19 19 19 20 20 21 22 23 24 25 26 27 28 29 30
5 5 5 4 4 4 5 5 6 7 7 9 11 12 12 13 14 15 15 15 15 15 15 15 16 17 18 19 19 19 19 20 21 21 21 21 20 20 20 20 19 19 18 17 17 17 17 17 17 18 18 18 19 20 21 22 23 24 25 26 27 28 29
5 5 5 4 3 4 5 6 7 8 9 10 12 13 13 13 14 14 13 14 14 14 14 14 15 15 16 17 17 18 18 19 19 19 18 18 18 18 18 18 17 17 16 16 16 16 16 16 16 16 17 17 18 19 20 21 22 23 24 25 26 26 27
6 6 5 5 5 5 5 6 7 9 10 11 13 14 13 13 14 14 13 14 14 14 13 13 14 15 16 16 17 17 18 17 17 17 16 17 17 17 17 16 16 15 15 15 15 15 15 15 15 15 16 17 18 19 20 21 22 23 24 24 25 25 26
7 7 6 6 6 6 6 6 7 9 11 12 13 14 14 13 14 15 15 14 14 13 12 13 14 15 16 17 17 17 17 16 16 16 15 16 16 16 16 15 15 14 14 14 14 14 13 14 14 14 15 16 17 18 19 20 21 22 23 23 24 25 26
7 7 6 6 6 6 6 7 7 9 11 13 13 13 13 13 14 16 15 15 14 12 12 13 13 15 16 17 16 16 16 16 15 15 15 15 15 15 15 14 14 14 13 13 13 13 12 13 13 14 15 16 17 18 19 20 20 21 22 23 24 25 26
8 7 6 5 5 6 6 7 8 9 11 13 13 13 14 14 14 15 15 15 14 12 12 13 14 15 16 16 16 16 16 15 15 14 14 14 14 14 14 13 13 13 13 12 12 12 12 12 13 14 15 16 16 17 18 19 20 21 22 23 24 25 25
9 7 5 3 3 5 6 7 8 9 11 13 13 13 14 14 15 15 15 14 13 12 12 13 14 15 16 17 16 16 15 15 14 14 14 14 14 14 13 13 13 12 12 12 11 11 12 12 13 14 15 15 16 17 18 19 20 21 22 23 24 25 25
9 6 2 0 2 5 5 6 7 9 11 13 13 13 14 14 14 15 15 14 13 12 12 13 13 14 16 16 16 15 15 14 14 14 14 14 13 13 13 13 12 12 11 11 11 11 12 12 13 13 14 15 16 17 18 19 20 22 22 23 24 25 26
10 6 4 2 3 5 5 6 7 9 10 12 13 14 15 15 14 13 13 13 12 12 13 13 14 14 15 16 15 15 14 14 14 14 14 14 13 13 13 12 12 11 11 11 11 11 11 12 12 13 14 15 16 17 18 19 21 22 23 24 24 25 26
11 8 6 5 4 4 5 5 7 9 10 12 13 14 15 14 13 12 12 11 12 12 12 12 13 14 15 15 15 14 14 13 13 13 14 14 13 13 12 12 11 11 10 10 11 11 11 12 12 13 14 15 16 17 19 20 21 22 23 24 25 26 26
Wind_Direction
257 257 256 256 256 255 255 254 254 253 253 253 252 252 251 251 249 249 249 248 247 247 247 247 247 247 248 248 247 247 246 246 246 246 247 248 248 248 248 248 249 251 252 253 253 253 253 253 253 254 255 256 257 258 259 260 261 262 263 265 266 267 269
260 258 258 257 256 256 255 255 254 253 253 253 253 253 252 251 249 248 247 247 246 245 246 246 247 247 247 247 246 246 245 244 244 244 245 247 247 248 248 248 248 250 251 252 252 252 253 253 253 254 255 256 257 258 260 261 262 263 264 266 267 268 270
262 261 260 259 258 257 256 256 255 254 253 253 253 252 252 251 250 249 247 246 245 245 244 245 245 246 246 246 246 244 244 243 243 243 245 246 247 247 247 248 248 249 250 250 251 251 252 253 253 254 255 256 257 258 260 262 263 264 265 266 268 269 271
265 264 262 260 259 258 257 257 256 255 254 254 253 252 251 251 250 249 248 246 245 244 244 244 244 244 245 245 244 243 242 242 242 242 244 245 246 246 246 247 248 249 250 250 250 251 252 253 254 255 256 257 258 259 261 262 263 265 266 267 268 270 271
270 268 266 264 262 260 259 257 256 256 255 255 254 253 252 251 250 249 248 246 245 244 243 242 243 243 243 243 243 241 241 241 240 241 242 243 244 244 245 246 247 248 249 250 250 251 252 253 254 255 257 258 259 261 262 264 265 266 268 269 270 270 272
272 271 269 268 266 263 261 259 258 256 255 255 254 254 253 252 250 248 247 245 244 243 242 241 241 242 242 242 242 240 239 239 239 240 241 241 241 242 243 244 246 247 248 249 251 251 252 253 254 256 258 259 261 263 264 265 266 268 268 269 270 271 272
274 273 271 269 267 265 263 261 260 258 257 255 254 253 253 252 250 248 246 244 243 242 242 241 240 241 241 241 241 239 238 238 238 239 239 239 240 241 242 244 246 246 248 249 251 252 252 253 255 257 259 260 262 263 264 265 267 268 268 269 270 271 273
276 275 272 270 268 266 264 262 260 259 258 257 256 254 253 251 250 248 246 243 242 241 241 240 239 239 239 239 239 238 237 238 238 238 238 239 240 240 241 244 245 246 247 249 251 252 252 254 255 257 259 261 262 263 264 266 267 267 268 269 270 272 274
277 276 273 271 269 267 264 262 261 260 259 259 258 257 254 252 250 248 245 242 240 240 239 238 237 237 237 237 237 236 236 237 237 238 238 239 239 239 241 243 244 245 247 249 250 251 252 253 255 257 259 261 261 263 265 266 267 268 269 270 272 273 274
279 277 274 271 270 268 265 264 262 261 261 261 259 258 255 253 250 248 246 242 239 238 238 237 236 235 235 235 235 234 235 235 236 237 238 238 238 238 240 241 243 245 247 248 249 250 251 253 255 257 260 261 262 264 266 267 268 269 270 272 273 274 275
280 278 275 272 270 267 265 265 264 263 263 262 260 259 256 253 250 247 245 241 238 236 235 235 235 234 233 233 233 233 233 234 235 236 237 238 237 237 239 240 242 244 246 247 248 249 250 253 256 259 261 263 265 266 267 268 269 270 271 272 273 274 276
282 279 276 272 270 267 266 266 265 264 264 263 261 259 256 253 249 246 243 240 237 234 232 233 233 233 232 232 232 232 232 233 234 235 236 237 236 237 239 240 242 243 244 246 248 249 251 254 257 260 262 264 266 267 269 270 271 272 272 272 273 275 277
282 280 276 273 270 269 268 267 266 265 264 263 263 261 257 252 247 244 241 237 234 231 229 229 230 230 230 230 230 231 232 232 233 234 235 235 236 237 238 240 241 242 243 246 248 250 252 255 257 260 262 265 267 269 271 272 272 272 272 272 274 275 278
283 279 275 273 271 270 270 269 268 266 265 265 264 262 258 251 245 241 238 234 230 228 227 227 227 227 227 228 228 229 230 231 231 232 233 233 235 236 237 239 240 241 243 246 247 250 252 255 257 261 265 268 270 271 273 272 272 272 272 273 275 277 280
282 278 275 273 271 271 271 271 270 268 268 268 266 262 257 249 240 236 232 229 227 226 226 225 224 224 224 225 226 227 228 228 229 229 230 231 233 235 237 239 240 241 243 245 246 249 252 256 259 263 267 269 271 272 272 271 270 271 273 275 277 280 282
279 276 275 273 272 272 272 271 270 270 270 269 265 260 253 242 234 229 225 223 223 223 224 223 222 221 222 223 224 225 226 226 227 228 229 231 233 235 237 239 240 241 242 244 247 250 253 257 260 264 267 269 271 272 271 270 271 272 274 276 279 281 283
280 278 277 275 274 274 272 270 269 270 269 266 261 254 244 232 225 221 219 220 221 221 221 220 219 220 221 221 222 223 225 225 226 227 228 230 232 234 236 238 239 241 242 244 247 251 253 257 261 264 267 269 271 271 270 271 272 274 276 277 279 281 284
283 281 278 276 275 273 270 267 268 268 266 261 252 244 234 224 217 215 215 217 217 217 218 218 217 218 219 220 220 222 223 224 224 225 226 228 231 233 236 238 239 240 243 245 248 251 254 258 262 266 268 270 271 271 270 271 272 274 277 278 280 283 286
286 284 282 279 275 271 266 264 265 264 261 253 241 232 224 217 213 211 212 212 212 213 215 216 215 216 217 218 219 220 222 222 222 223 225 228 231 233 236 238 239 241 243 246 249 253 257 260 263 266 268 268 269 270 270 271 273 275 277 279 282 285 288
289 288 287 282 274 268 262 260 261 259 253 243 230 220 214 210 208 207 208 209 210 211 213 213 214 215 214 215 216 217 219 219 220 223 225 228 230 233 236 238 239 241 243 247 251 255 258 261 264 265 266 267 267 268 270 272 274 276 278 280 284 287 289
294 293 290 282 272 265 259 257 256 252 245 232 219 210 205 203 204 204 205 207 209 210 211 210 211 211 211 212 214 215 216 217 219 221 224 226 230 233 235 236 238 240 243 248 252 255 258 261 263 263 264 265 267 269 271 273 275 278 280 282 285 288 291
297 296 291 283 274 265 258 255 251 245 234 219 208 203 199 200 202 203 203 204 205 207 207 207 207 208 208 209 211 212 213 214 217 219 222 225 228 230 231 234 237 240 243 247 251 254 258 260 260 261 263 265 267 269 272 275 277 280 283 285 287 290 292
300 297 292 289 281 265 256 252 240 227 214 204 201 200 198 196 197 198 200 201 201 201 202 203 204 205 205 206 207 208 210 212 214 217 220 223 225 227 229 233 237 240 243 247 251 253 256 257 257 260 263 265 268 271 274 277 281 283 286 288 290 292 293
308 306 300 299 291 267 247 236 221 207 199 196 197 198 194 192 192 194 197 198 197 197 198 200 201 202 202 203 204 206 208 210 212 216 218 220 223 226 229 234 238 241 244 247 249 250 252 254 256 260 263 266 270 273 277 281 284 286 289 291 293 295 295
308 311 303 298 292 267 236 220 208 197 193 194 195 192 189 187 190 192 192 192 193 194 195 195 196 197 199 200 202 204 207 209 211 214 216 219 222 227 232 236 239 241 242 244 245 247 250 253 256 260 264 268 272 276 281 284 287 290 292 294 296 298 299
297 301 295 289 282 259 231 215 206 197 192 191 190 187 182 181 185 187 186 187 189 190 190 191 192 194 196 199 201 203 206 208 210 212 216 221 226 231 234 236 236 236 237 239 242 245 248 252 256 261 266 270 275 280 284 287 291 293 296 298 300 301 302
294 291 287 288 280 249 225 215 208 200 192 187 187 184 178 177 180 181 182 185 188 188 188 189 192 194 196 197 198 200 203 206 209 213 218 223 227 230 231 231 231 232 234 237 240 243 248 253 258 263 269 274 278 283 287 290 293 296 299 302 303 304 305
304 296 287 281 273 245 227 220 211 203 196 191 187 183 178 177 179 178 178 182 184 185 188 189 190 192 193 194 196 198 201 205 209 213 217 221 224 226 227 227 228 229 231 235 239 245 250 255 260 266 272 277 281 285 289 293 296 299 301 304 306 306 307
307 302 290 273 260 246 234 225 214 204 197 191 186 182 179 178 180 180 179 179 178 180 185 186 184 185 186 188 191 195 199 203 207 211 215 219 222 223 223 222 223 225 230 235 241 246 251 256 263 270 275 280 283 287 292 296 298 301 304 306 307 307 308
312 308 296 273 255 244 234 224 211 200 193 188 186 185 182 181 183 183 180 178 177 179 183 185 185 186 186 187 190 194 198 202 205 208 213 216 217 217 217 218 221 226 231 237 241 247 253 260 267 273 277 282 286 290 295 298 301 303 306 307 308 309 310
320 316 304 280 251 237 230 219 206 196 189 185 186 186 184 183 184 183 180 179 180 183 187 189 189 189 190 191 194 197 200 203 205 208 211 212 213 214 214 217 222 227 232 237 243 249 256 263 269 275 280 285 290 294 298 300 303 306 308 309 310 311 312
326 318 308 288 249 227 219 210 199 191 186 184 185 187 187 186 185 183 182 182 184 187 192 193 192 192 193 195 198 199 201 204 206 208 210 211 211 212 214 218 223 228 234 240 245 252 259 265 272 277 283 288 293 296 300 303 306 309 310 311 312 313 313
334 324 312 289 231 207 202 198 194 189 186 184 184 185 186 184 183 182 183 184 187 191 195 196 196 196 196 197 199 201 203 206 207 209 210 210 210 211 215 220 225 230 236 242 248 255 262 268 275 280 286 291 295 298 302 305 308 310 312 313 314 314 315
353 349 348 52 167 174 179 185 187 186 184 183 183 183 181 178 178 180 183 186 190 193 196 197 198 198 198 198 199 201 204 207 208 209 210 209 210 213 217 222 228 234 239 244 250 258 265 272 278 283 288 293 297 300 303 306 309 312 313 314 315 316 316
15 25 45 80 130 153 163 172 177 178 179 181 181 181 179 177 178 183 187 191 194 196 196 196 196 197 199 199 199 201 205 208 209 210 209 209 211 215 220 225 230 235 239 246 254 262 269 275 280 286 290 295 299 302 305 308 310 313 314 315 316 316 317
29 45 60 72 100 132 151 164 171 174 177 179 180 180 180 182 186 191 193 195 197 199 199 199 198 198 199 200 201 205 208 210 210 210 209 210 214 217 221 225 231 236 242 250 258 265 271 277 283 288 293 297 300 304 307 310 312 313 314 315 316 316 316